"Pseudo-MPEC" for P12oVVb

Created 2026 Aug 9 7:35:06 UT using Find_Orb

Click here for an explanation of pseudo-MPECs

 
 Astrometry: 
     P12oVVb*0C2026 08 07.43414121 22 37.583-20 50 23.63   ~87Co 20.89wXNEOCPF51
     P12oVVb 0C2026 08 07.44412621 22 40.206-20 49 40.32   ~87Co 20.87wXNEOCPF51
     P12oVVb 0C2026 08 07.45409821 22 42.819-20 48 57.34   ~87Co 21.15wXNEOCPF51
     P12oVVb 0C2026 08 07.46407621 22 45.440-20 48 14.00   ~87Co 21.09wXNEOCPF51
     P12oVVb 0C2026 08 07.55512121 23 09.616-20 41 33.14   ~87Go 20.81GVNEOCPF51
     P12oVVb 0C2026 08 07.55594021 23 09.833-20 41 29.74   ~87Go 20.86GVNEOCPF51
     P12oVVb KC2026 08 07.89717221 24 57.998-20 17 09.60   ~87MK 20.95GXNEOCPM57
     P12oVVb KC2026 08 07.90519221 25 00.151-20 16 35.29   ~87MK 21.16GXNEOCPM57
     P12oVVb 0B2026 08 07.91538221 25 02.968-20 14 30.95   ~881Z 20.8 GWNEOCPM21
     P12oVVb 0B2026 08 07.94940421 25 11.869-20 12 04.19   ~881Z       WNEOCPM21

Station data:
(F51) Pan-STARRS 1, Haleakala  (N20.707234 W156.255910)  US/Hawaii.
   Observers J. Herman, T. Lowe, P. Minguez, A. Schultz, I. Smith. Measurers
   K. Chambers, T. de Boer, J. Fairlamb, H. Gao, M. Huber, C.-C. Lin, E.
   Magnier, Y. Ramanjooloo, R. Wainscoat, R. Weryk. 1.8-m Ritchey-Chrétien +
   CCD.
(M21) Schiaparelli Southern Observatory, Hakos  (S23.236549 E16.361440)
   Namibia.  Observers A. Aletti, F. Bellini, L. Buzzi, G. Galli. Measurer L.
   Buzzi. 0.36-m f/8.4 reflector + CCD.
(M57) Wide-field Mufara Telescope, Isnello  (N37.868879 E14.020200)  Italy.
   Observer A. Nastasi. 1.00-m f/2.1 reflector + CCD.

Orbital elements:  P12oVVb
   Perihelion 2026 Aug 8.624229 +/- 0.865 TT = 14:58:53.4 (JD 2461261.124229)
Epoch 2026 Aug  8.0 TT = JDT 2461260.5   Earth MOID: 0.0974      AutoNEOCP
M 359.775697521 +/- 0.31            (J2000 ecliptic)
n   0.359327165 +/- 0.00155         Peri.  354.569638 +/- 0.9
a   1.959488330 +/- 0.00562         Node   321.364155 +/- 0.034
e   0.43295807 +/- 0.00149          Incl.    3.924553 +/- 0.029
P   2.74293                H 25.46  G  0.15   U  8.4
q 1.111112037 +/- 0.000267    Q 2.807864623 +/- 0.011
From 10 observations 2026 Aug. 7 (12.4 hr); mean residual 0".09
Residuals in arcseconds: 
260807 F51  .03+  .05-    260807 F51  .02+  .12+    260807 M21  .08-  .13-    
260807 F51  .03+  .15+    260807 F51  .04-  .12-    260807 M21  .13-  .00     
260807 F51  .04-  .06-    260807 M57  .18+  .07+    
260807 F51  .02-  .04-    260807 M57  .07+  .07+    

Ephemerides (geocentric):
Date (UTC) HH   RA             Dec           delta  r     elong  mag " sig PA
---- --------  ------------   ------------  ------ ------ -----  --- --------
2026 08 09 08  21 31 57.569   -18 31 21.00  .09760 1.1111 175.3 21.0 10.4  44
2026 08 09 09  21 32 09.628   -18 28 18.21  .09761 1.1111 175.3 21.0 10.9  44
2026 08 09 10  21 32 21.676   -18 25 15.39  .09762 1.1111 175.3 21.0 11.5  43
2026 08 09 11  21 32 33.714   -18 22 12.54  .09762 1.1111 175.3 21.0 12.0  43
2026 08 09 12  21 32 45.740   -18 19 09.67  .09763 1.1112 175.3 21.0 12.6  43
2026 08 09 13  21 32 57.756   -18 16 06.78  .09764 1.1112 175.3 21.0 13.2  43
2026 08 09 14  21 33 09.762   -18 13 03.87  .09765 1.1112 175.3 21.0 13.8  43
2026 08 09 15  21 33 21.756   -18 10 00.93  .09766 1.1112 175.4 21.0 14.4  43
2026 08 09 16  21 33 33.739   -18 06 57.98  .09767 1.1112 175.4 21.0 15.0  43
2026 08 09 17  21 33 45.712   -18 03 55.01  .09768 1.1112 175.4 21.0 15.6  43
2026 08 09 18  21 33 57.673   -18 00 52.02  .09769 1.1112 175.4 21.0 16.3  43
2026 08 09 19  21 34 09.624   -17 57 49.01  .09770 1.1112 175.4 21.0 17.0  43
2026 08 09 20  21 34 21.563   -17 54 45.99  .09771 1.1112 175.4 21.0 17.6  43
2026 08 09 21  21 34 33.492   -17 51 42.96  .09772 1.1112 175.4 21.0 18.3  43
2026 08 09 22  21 34 45.410   -17 48 39.91  .09773 1.1112 175.4 21.0 19.0  43
2026 08 09 23  21 34 57.316   -17 45 36.86  .09774 1.1112 175.4 21.0 19.7  43
2026 08 10 00  21 35 09.211   -17 42 33.79  .09775 1.1112 175.4 21.0 20.5  43
2026 08 10 01  21 35 21.096   -17 39 30.72  .09777 1.1112 175.4 21.0 21.2  43
2026 08 10 02  21 35 32.969   -17 36 27.64  .09778 1.1112 175.4 21.0 21.9  43
2026 08 10 03  21 35 44.831   -17 33 24.55  .09779 1.1112 175.5 21.0 22.7  43
2026 08 10 04  21 35 56.682   -17 30 21.46  .09780 1.1112 175.5 21.0 23.5  43
2026 08 10 05  21 36 08.521   -17 27 18.36  .09782 1.1112 175.5 21.0 24.3  43
2026 08 10 06  21 36 20.350   -17 24 15.26  .09783 1.1112 175.5 21.0 25.1  43
2026 08 10 07  21 36 32.167   -17 21 12.16  .09784 1.1113 175.5 21.0 25.9  43
2026 08 10 08  21 36 43.972   -17 18 09.06  .09785 1.1113 175.5 21.0 26.7  43
2026 08 10 09  21 36 55.767   -17 15 05.97  .09787 1.1113 175.5 21.0 27.5  43
2026 08 10 10  21 37 07.550   -17 12 02.87  .09788 1.1113 175.5 21.0 28.4  43
2026 08 10 11  21 37 19.322   -17 08 59.78  .09790 1.1113 175.5 21.0 29.3  43
2026 08 10 12  21 37 31.082   -17 05 56.69  .09791 1.1113 175.5 21.0 30.1  43
2026 08 10 13  21 37 42.831   -17 02 53.61  .09792 1.1113 175.5 21.0 31.0  43
2026 08 10 14  21 37 54.568   -16 59 50.53  .09794 1.1113 175.5 21.0 31.9  43
2026 08 10 15  21 38 06.294   -16 56 47.47  .09795 1.1113 175.5 21.0 32.8  43
2026 08 10 16  21 38 18.009   -16 53 44.41  .09797 1.1113 175.5 21.0 33.8  43
2026 08 10 17  21 38 29.712   -16 50 41.36  .09798 1.1113 175.5 21.0 34.7  43
2026 08 10 18  21 38 41.404   -16 47 38.33  .09800 1.1113 175.5 21.0 35.6  43
2026 08 10 19  21 38 53.084   -16 44 35.31  .09801 1.1114 175.5 21.0 36.6  43
2026 08 10 20  21 39 04.752   -16 41 32.30  .09803 1.1114 175.5 21.0 37.6  43
2026 08 10 21  21 39 16.409   -16 38 29.31  .09805 1.1114 175.5 21.0 38.6  43
2026 08 10 22  21 39 28.054   -16 35 26.33  .09806 1.1114 175.5 21.0 39.6  43
2026 08 10 23  21 39 39.688   -16 32 23.37  .09808 1.1114 175.5 21.0 40.6  43
2026 08 11 00  21 39 51.310   -16 29 20.43  .09810 1.1114 175.5 21.0 41.6  43
2026 08 11 01  21 40 02.920   -16 26 17.51  .09811 1.1114 175.5 21.0 42.6  43
2026 08 11 02  21 40 14.519   -16 23 14.62  .09813 1.1114 175.5 21.0 43.7  43
2026 08 11 03  21 40 26.106   -16 20 11.74  .09815 1.1114 175.5 21.0 44.7  43
2026 08 11 04  21 40 37.681   -16 17 08.89  .09817 1.1114 175.5 21.0 45.8  43
2026 08 11 05  21 40 49.244   -16 14 06.06  .09818 1.1115 175.5 21.0 46.9  43
2026 08 11 06  21 41 00.796   -16 11 03.26  .09820 1.1115 175.5 21.0 48.0  43
2026 08 11 07  21 41 12.335   -16 08 00.49  .09822 1.1115 175.5 21.0 49.1  43